This is the latest recevied weather packets stored in our database for station/object KJ6HT. If no packets are shown the sender has not sent any weather packets the latest 10 day(s).
| Time | Temp. | Humidity | Pressure | Rain* | Wind** | Luminosity | Snow |
|---|---|---|---|---|---|---|---|
| 1788333386 | 18.89° C | 78% | 1014.1 hPa | 0 mm | - | - | - |
| 1788332452 | 19.44° C | 76% | 1013.9 hPa | 0 mm | - | - | - |
| 1788331532 | 20° C | 74% | 1013.9 hPa | 0 mm | - | - | - |
| 1788330690 | 19.44° C | 76% | 1014 hPa | 0 mm | - | - | - |
| 1788329754 | 20° C | 73% | 1013.9 hPa | 0 mm | - | - | - |
| 1788328834 | 19.44° C | 73% | 1013.7 hPa | 0 mm | - | - | - |
| 1788327925 | 19.44° C | 73% | 1013.7 hPa | 0 mm | - | - | - |
| 1788327066 | 19.44° C | 73% | 1013.7 hPa | 0 mm | - | - | - |
| 1788326125 | 20° C | 71% | 1013.7 hPa | 0 mm | - | - | - |
| 1788325270 | 20.56° C | 70% | 1013.5 hPa | 0 mm | - | - | - |
| 1788324315 | 21.11° C | 68% | 1013.4 hPa | 0 mm | - | - | - |
| 1788323476 | 21.67° C | 67% | 1013.2 hPa | 0 mm | - | - | - |
| 1788322527 | 21.67° C | 65% | 1013 hPa | 0 mm | - | - | - |
| 1788321685 | 21.67° C | 65% | 1012.7 hPa | 0 mm | - | - | - |
| 1788320769 | 22.22° C | 64% | 1012.4 hPa | 0 mm | - | - | - |
| 1788319818 | 22.22° C | 63% | 1012.1 hPa | 0 mm | - | - | - |
| 1788318976 | 22.78° C | 61% | 1011.8 hPa | 0 mm | - | - | - |
| 1788318016 | 23.33° C | 57% | 1011.4 hPa | 0 mm | - | - | - |
| 1788317176 | 23.89° C | 54% | 1011.3 hPa | 0 mm | - | - | - |
| 1788316212 | 24.44° C | 45% | 1011.2 hPa | 0 mm | - | - | - |
| 1788315366 | 25° C | 37% | 1011.3 hPa | 0 mm | - | - | - |
| 1788314416 | 25.56° C | 36% | 1011.4 hPa | 0 mm | - | - | - |
| 1788313558 | 26.11° C | 39% | 1011.3 hPa | 0 mm | - | - | - |
| 1788312622 | 26.67° C | 39% | 1011.3 hPa | 0 mm | - | - | - |
| 1788311771 | 27.22° C | 38% | 1011.3 hPa | 0 mm | - | - | - |
* Rain latest hour (hover to see other rain measurements)
** Current wind speed in m/s (hover to see current wind gust speed)